Location: Poughquag
(41.6090°N, 73.6820°W)
Time: 14:02:43
(UTC-05:00)

Hubble Space Telescope - Visible Passes

Search period start: 20 February 2018 00:00
Search period end: 02 March 2018 00:00
Orbit: 537 x 541 km, 28.5° (Epoch: 19 February)

Date Brightness Start Highest point End Pass type
(mag) Time Alt. Az. Time Alt. Az. Time Alt. Az.
20 Feb 3.4 05:44:44 10° S 05:45:59 11° S 05:47:13 10° SSE visible
21 Feb 3.3 05:33:57 10° SSW 05:35:34 12° S 05:37:12 10° SSE visible
22 Feb 3.2 05:23:20 10° SSW 05:25:09 13° S 05:26:59 10° SSE visible
23 Feb 3.1 05:12:56 10° SSW 05:14:45 13° S 05:16:42 10° SSE visible
24 Feb 3.0 05:03:15 12° SSW 05:04:21 13° S 05:06:19 10° SSE visible
25 Feb 3.0 04:53:32 13° S 04:53:55 13° S 04:55:50 10° SSE visible
26 Feb 3.1 04:43:51 12° S 04:43:51 12° S 04:45:16 10° SSE visible
27 Feb 3.3 04:34:10 11° S 04:34:10 11° S 04:34:34 10° SSE visible
